This is the latest recevied weather packets stored in our database for station/object DM5KA-13. If no packets are shown the sender has not sent any weather packets the latest 10 day(s).
| Time | Temp. | Humidity | Pressure | Rain* | Wind** | Luminosity | Snow |
|---|---|---|---|---|---|---|---|
| 1778027417 | 12.22° C | 99% | 1006.6 hPa | 0 mm | 0 m/s | - | - |
| 1778027117 | 12.22° C | 99% | 1006.6 hPa | 0 mm | 0.45 m/s, 0° | - | - |
| 1778026817 | 12.22° C | 99% | 1006.7 hPa | 0 mm | 0 m/s | - | - |
| 1778026517 | 12.22° C | 99% | 1006.7 hPa | 0 mm | 0.45 m/s, 0° | - | - |
| 1778026217 | 12.22° C | 99% | 1006.8 hPa | 0 mm | 0 m/s | - | - |
| 1778025929 | 12.22° C | 99% | 1006.8 hPa | 0.51 mm | 1.34 m/s, 0° | - | - |
| 1778025605 | 12.22° C | 99% | 1006.7 hPa | 0.51 mm | 0 m/s | - | - |
| 1778025304 | 12.22° C | 99% | 1006.9 hPa | 0.51 mm | 0.45 m/s, 0° | - | - |
| 1778025004 | 12.22° C | 99% | 1006.9 hPa | 1.02 mm | 0 m/s | - | - |
| 1778024704 | 12.22° C | 99% | 1007 hPa | 1.27 mm | 0.45 m/s, 0° | - | - |
| 1778024405 | 12.22° C | 99% | 1006.9 hPa | 1.78 mm | 0.45 m/s, 0° | - | - |
| 1778024105 | 12.22° C | 99% | 1006.9 hPa | 2.03 mm | 0.45 m/s, 0° | - | - |
| 1778023805 | 12.22° C | 99% | 1006.9 hPa | 2.03 mm | 0 m/s | - | - |
| 1778023505 | 12.22° C | 99% | 1006.9 hPa | 2.03 mm | 0 m/s | - | - |
| 1778023205 | 12.22° C | 99% | 1007.1 hPa | 2.54 mm | 0 m/s | - | - |
| 1778022904 | 12.22° C | 99% | 1007.2 hPa | 3.3 mm | 0 m/s | - | - |
| 1778022604 | 12.22° C | 99% | 1007.4 hPa | 2.79 mm | 0.45 m/s, 0° | - | - |
| 1778022305 | 12.22° C | 99% | 1007.5 hPa | 3.3 mm | 0 m/s | - | - |
| 1778022004 | 12.78° C | 99% | 1007.6 hPa | 3.3 mm | 0 m/s | - | - |
| 1778021704 | 12.78° C | 99% | 1007.6 hPa | 2.79 mm | 0 m/s | - | - |
| 1778021405 | 12.78° C | 99% | 1007.7 hPa | 2.79 mm | 0 m/s | - | - |
| 1778021117 | 12.78° C | 99% | 1007.6 hPa | 3.3 mm | 0 m/s | - | - |
| 1778020816 | 12.78° C | 99% | 1007.7 hPa | 3.3 mm | 0 m/s | - | - |
| 1778020515 | 12.78° C | 99% | 1007.7 hPa | 3.3 mm | 0.45 m/s, 0° | - | - |
| 1778020215 | 12.78° C | 99% | 1007.7 hPa | 3.3 mm | 0 m/s | - | - |
* Rain latest hour (hover to see other rain measurements)
** Current wind speed in m/s (hover to see current wind gust speed)